Weather History for KNUW - January, 2014

Change the Weather History Date:

Monday, January 13, 2014

  Actual Average Record
Temperature  
Mean Temperature 52 °F -  
Max Temperature 55 °F 44 °F 55 °F (2004)
Min Temperature 50 °F 35 °F 19 °F (2007)
Degree Days  
Heating Degree Days 12    
Growing Degree Days 2 (Base 50)    
Moisture  
Dew Point 45 °F    
Average Humidity 78    
Maximum Humidity 83    
Minimum Humidity 71    
Precipitation  
Precipitation 0.01 in - - ()
Sea Level Pressure  
Sea Level Pressure 30.46 in    
Wind  
Wind Speed 11 mph (SSW)    
Max Wind Speed 21 mph    
Max Gust Speed 26 mph    
Visibility 10 miles    
Events Rain    
Averages and records for this station are not official NWS values.
T = Trace of Precipitation, MM = Missing Value Source: NWS Daily Summary

Daily Weather History Graph

Daily Weather History Graph

Search for Another Location

Airport or City:

Trip Planner

Search our weather history database for the weather conditions in past years. The results will help you decide how hot, cold, wet, or windy it might be!

Date:

Astronomy

Jan. 13, 2014 Rise Set
Actual Time 7:58 AM PST 4:41 PM PST
Civil Twilight 7:22 AM PST 5:16 PM PST
Nautical Twilight 6:43 AM PST 5:55 PM PST
Astronomical Twilight 6:05 AM PST 6:33 PM PST
Moon 3:02 PM PST (1/13) 5:49 AM PST (1/13)
Length of Visible Light 9h 54m
Length of Day
8h 43m
Waxing Gibbous, 95% of the Moon is Illuminated
Jan 13
Waxing Gibbous
Jan 15
Full
Jan 23
Last Quarter
Jan 30
New
Feb 6
First Quarter

Hourly Weather History & Observations

Time (PST) Temp. Dew Point Humidity Pressure Visibility Wind Dir Wind Speed Gust Speed Precip Events Conditions
12:56 AM 53.1 °F 44.1 °F 71% 30.30 in 10.0 mi SW 11.5 mph 20.7 mph N/A   Overcast
1:56 AM 52.0 °F 44.1 °F 74% 30.32 in 10.0 mi SW 9.2 mph - N/A   Overcast
2:56 AM 53.1 °F 44.1 °F 71% 30.33 in 10.0 mi SW 17.3 mph 26.5 mph N/A   Overcast
3:56 AM 53.1 °F 44.1 °F 71% 30.35 in 10.0 mi WSW 18.4 mph 25.3 mph N/A   Overcast
4:42 AM 51.1 °F 44.1 °F 77% 30.35 in 10.0 mi South 11.5 mph - 0.00 in Rain Light Rain
4:56 AM 52.0 °F 45.0 °F 77% 30.36 in 10.0 mi SSE 10.4 mph - 0.00 in Rain Light Rain
5:37 AM 51.1 °F 44.1 °F 77% 30.35 in 8.0 mi SE 6.9 mph - 0.00 in   Overcast
5:56 AM 51.1 °F 45.0 °F 80% 30.37 in 8.0 mi SSE 4.6 mph - 0.00 in   Overcast
6:49 AM 51.1 °F 45.0 °F 80% 30.36 in 8.0 mi South 10.4 mph - 0.00 in Rain Light Rain
6:56 AM 51.1 °F 45.0 °F 80% 30.37 in 8.0 mi South 10.4 mph - 0.00 in Rain Light Rain
7:16 AM 51.1 °F 45.0 °F 80% 30.36 in 8.0 mi SSE 12.7 mph 19.6 mph 0.00 in   Overcast
7:33 AM 51.1 °F 45.0 °F 80% 30.36 in 8.0 mi SE 11.5 mph - 0.00 in Rain Light Rain
7:56 AM 51.1 °F 45.0 °F 80% 30.39 in 8.0 mi SE 9.2 mph - 0.00 in Rain Light Rain
8:07 AM 51.1 °F 45.0 °F 80% 30.38 in 8.0 mi SE 10.4 mph - 0.00 in   Overcast
8:25 AM 50.0 °F 44.1 °F 80% 30.40 in 8.0 mi SE 16.1 mph - 0.00 in Rain Light Rain
8:56 AM 50.0 °F 44.1 °F 80% 30.43 in 9.0 mi SSE 8.1 mph - 0.00 in Rain Light Rain
9:25 AM 51.1 °F 45.0 °F 80% 30.44 in 9.0 mi SE 10.4 mph - 0.00 in   Overcast
9:56 AM 51.1 °F 45.0 °F 80% 30.46 in 10.0 mi SSE 9.2 mph - 0.00 in   Overcast
10:22 AM 51.1 °F 45.0 °F 80% 30.47 in 10.0 mi SE 6.9 mph - 0.00 in Rain Light Rain
10:56 AM 52.0 °F 45.0 °F 77% 30.48 in 10.0 mi South 5.8 mph - 0.01 in Rain Light Rain
11:44 AM 53.1 °F 46.0 °F 77% 30.48 in 10.0 mi SSW 11.5 mph - 0.00 in   Overcast
11:56 AM 53.1 °F 46.0 °F 77% 30.49 in 10.0 mi SW 11.5 mph 17.3 mph 0.00 in   Overcast
12:50 PM 55.4 °F 46.4 °F 72% 30.46 in 10.0 mi SW 16.1 mph 21.9 mph N/A   Overcast
12:56 PM 54.0 °F 46.0 °F 75% 30.48 in 10.0 mi SW 13.8 mph - N/A   Overcast
1:56 PM 54.0 °F 46.0 °F 75% 30.50 in 10.0 mi WSW 20.7 mph - N/A   Overcast
2:42 PM 52.0 °F 46.0 °F 80% 30.49 in 10.0 mi WSW 18.4 mph - 0.00 in Rain Light Rain
2:56 PM 52.0 °F 46.0 °F 80% 30.51 in 10.0 mi WSW 16.1 mph - 0.00 in Rain Light Rain
3:18 PM 52.0 °F 46.0 °F 80% 30.50 in 10.0 mi WSW 17.3 mph - 0.00 in   Overcast
3:56 PM 52.0 °F 46.0 °F 80% 30.51 in 10.0 mi WSW 19.6 mph - 0.00 in   Overcast
4:56 PM 52.0 °F 46.0 °F 80% 30.53 in 10.0 mi SW 12.7 mph - N/A   Mostly Cloudy
5:18 PM 51.1 °F 46.0 °F 83% 30.53 in 10.0 mi South 6.9 mph - N/A   Mostly Cloudy
5:56 PM 52.0 °F 46.0 °F 80% 30.54 in 10.0 mi SW 10.4 mph - N/A   Mostly Cloudy
6:24 PM 52.0 °F 45.0 °F 77% 30.54 in 10.0 mi SW 6.9 mph - N/A   Overcast
6:56 PM 53.1 °F 46.0 °F 77% 30.56 in 10.0 mi SW 6.9 mph - N/A   Overcast
7:44 PM 53.1 °F 45.0 °F 74% 30.56 in 10.0 mi WSW 10.4 mph - N/A   Overcast
7:56 PM 52.0 °F 45.0 °F 77% 30.58 in 10.0 mi WSW 6.9 mph - N/A   Overcast
8:15 PM 52.0 °F 45.0 °F 77% 30.57 in 10.0 mi WSW 8.1 mph - N/A   Overcast
8:56 PM 53.1 °F 46.0 °F 77% 30.59 in 10.0 mi SSW 9.2 mph - N/A   Overcast
9:56 PM 52.0 °F 46.0 °F 80% 30.61 in 10.0 mi South 6.9 mph - N/A   Overcast
10:56 PM 50.0 °F 45.0 °F 83% 30.62 in 10.0 mi SE 6.9 mph - N/A   Overcast
11:56 PM 51.1 °F 46.0 °F 83% 30.63 in 10.0 mi SE 4.6 mph - N/A   Overcast